| time (UTC) | temp F | wind direction | speed MPH | gust MPH | rain 1hr in | rain 24hr in | rain mn in | humidity % | barometer mb |
| 20260506043051 | 66 | 168 | 3.0 | 9.0 | 0.00 | 0.00 | 0.00 | 60 | 1009.4 |
| 20260506041606 | 66 | 126 | 3.0 | 9.0 | 0.00 | 0.00 | 0.00 | 59 | 1009.4 |
| 20260506040056 | 66 | 166 | 1.0 | 11.0 | 0.00 | 0.00 | 0.00 | 59 | 1009.4 |
| 20260506034549 | 66 | 175 | 2.0 | 10.0 | 0.00 | 0.00 | 0.00 | 58 | 1009.3 |
| 20260506033055 | 66 | 132 | 3.0 | 13.0 | 0.00 | 0.00 | 0.00 | 58 | 1009.4 |
| 20260506031549 | 66 | 236 | 4.0 | 11.0 | 0.00 | 0.00 | 0.00 | 57 | 1009.4 |
| 20260506030054 | 67 | 128 | 3.0 | 9.0 | 0.00 | 0.00 | 0.00 | 55 | 1009.3 |
| 20260506024600 | 68 | 126 | 4.0 | 10.0 | 0.00 | 0.00 | 0.00 | 52 | 1009.2 |
| 20260506023057 | 70 | 209 | 3.0 | 9.0 | 0.00 | 0.00 | 0.00 | 48 | 1009.1 |
| 20260506021554 | 70 | 106 | 5.0 | 13.0 | 0.00 | 0.00 | 0.00 | 46 | 1009.0 |
| 20260506020121 | 70 | 183 | 2.0 | 11.0 | 0.00 | 0.00 | 0.00 | 46 | 1009.0 |
| 20260506014554 | 70 | 135 | 3.0 | 8.0 | 0.00 | 0.00 | 0.00 | 45 | 1008.9 |
| 20260506013048 | 71 | 124 | 1.0 | 7.0 | 0.00 | 0.00 | 0.00 | 44 | 1008.7 |
| 20260506011559 | 71 | 249 | 1.0 | 8.0 | 0.00 | 0.00 | 0.00 | 42 | 1008.5 |
| 20260506010049 | 73 | 128 | 2.0 | 5.0 | 0.00 | 0.00 | 0.00 | 41 | 1008.3 |
| 20260506004551 | 73 | 248 | 3.0 | 12.0 | 0.00 | 0.00 | 0.00 | 37 | 1008.2 |
| 20260506003053 | 74 | 185 | 4.0 | 12.0 | 0.00 | 0.00 | 0.00 | 37 | 1008.1 |
| 20260506001559 | 75 | 221 | 4.0 | 13.0 | 0.00 | 0.00 | 0.00 | 37 | 1007.8 |
| 20260506000104 | 75 | 265 | 6.0 | 15.0 | 0.00 | 0.00 | 0.00 | 35 | 1007.7 |
| 20260505234548 | 76 | 178 | 9.0 | 18.0 | 0.00 | 0.00 | 0.00 | 34 | 1007.5 |
| 20260505233056 | 76 | 188 | 9.0 | 16.0 | 0.00 | 0.00 | 0.00 | 34 | 1007.3 |
| 20260505231557 | 76 | 232 | 4.0 | 13.0 | 0.00 | 0.00 | 0.00 | 34 | 1007.3 |
| 20260505230054 | 77 | 174 | 6.0 | 16.0 | 0.00 | 0.00 | 0.00 | 34 | 1007.0 |
| 20260505224552 | 77 | 248 | 6.0 | 13.0 | 0.00 | 0.00 | 0.00 | 35 | 1006.7 |
| 20260505223059 | 77 | 269 | 3.0 | 11.0 | 0.00 | 0.00 | 0.00 | 34 | 1006.7 |
| 20260505221558 | 78 | 152 | 6.0 | 18.0 | 0.00 | 0.00 | 0.00 | 35 | 1006.5 |
| 20260505220105 | 79 | 200 | 7.0 | 21.0 | 0.00 | 0.00 | 0.00 | 33 | 1006.5 |
| 20260505214556 | 78 | 176 | 4.0 | 16.0 | 0.00 | 0.00 | 0.00 | 37 | 1006.4 |
| 20260505213047 | 79 | 188 | 2.0 | 14.0 | 0.00 | 0.00 | 0.00 | 37 | 1006.4 |
| 20260505211621 | 81 | 198 | 5.0 | 22.0 | 0.00 | 0.00 | 0.00 | 34 | 1006.2 |
| 20260505210051 | 82 | 192 | 5.0 | 18.0 | 0.00 | 0.00 | 0.00 | 31 | 1006.0 |
| 20260505204558 | 81 | 144 | 10.0 | 26.0 | 0.00 | 0.00 | 0.00 | 33 | 1006.0 |
| 20260505203047 | 80 | 240 | 9.0 | 20.0 | 0.00 | 0.00 | 0.00 | 34 | 1006.2 |
| 20260505201859 | 79 | 211 | 9.0 | 20.0 | 0.00 | 0.00 | 0.00 | 35 | 1006.4 |
| 20260505200055 | 82 | 193 | 7.0 | 18.0 | 0.00 | 0.00 | 0.00 | 33 | 1006.4 |
| 20260505194554 | 81 | 243 | 9.0 | 24.0 | 0.00 | 0.00 | 0.00 | 33 | 1006.4 |
| 20260505193048 | 80 | 235 | 9.0 | 21.0 | 0.00 | 0.00 | 0.00 | 33 | 1006.7 |
| 20260505191603 | 79 | 217 | 5.0 | 21.0 | 0.00 | 0.00 | 0.00 | 37 | 1006.8 |
| 20260505190108 | 79 | 145 | 6.0 | 16.0 | 0.00 | 0.00 | 0.00 | 39 | 1006.8 |
| 20260505184550 | 79 | 209 | 4.0 | 17.0 | 0.00 | 0.00 | 0.00 | 41 | 1007.1 |
| 20260505183051 | 79 | 296 | 9.0 | 17.0 | 0.00 | 0.00 | 0.00 | 40 | 1007.5 |
| 20260505181634 | 79 | 216 | 6.0 | 19.0 | 0.00 | 0.00 | 0.00 | 40 | 1007.4 |
| 20260505174549 | 79 | 166 | 7.0 | 17.0 | 0.00 | 0.00 | 0.00 | 40 | 1007.9 |
| 20260505173051 | 78 | 217 | 8.0 | 17.0 | 0.00 | 0.00 | 0.00 | 43 | 1007.8 |
| 20260505171553 | 78 | 250 | 7.0 | 19.0 | 0.00 | 0.00 | 0.00 | 44 | 1007.9 |
| 20260505170050 | 78 | 157 | 6.0 | 18.0 | 0.00 | 0.00 | 0.00 | 44 | 1008.0 |
| 20260505164549 | 77 | 204 | 4.0 | 14.0 | 0.00 | 0.00 | 0.00 | 44 | 1008.4 |
| 20260505163048 | 76 | 190 | 8.0 | 17.0 | 0.00 | 0.00 | 0.00 | 45 | 1008.6 |
| 20260505161600 | 76 | 141 | 6.0 | 14.0 | 0.00 | 0.00 | 0.00 | 46 | 1009.0 |
| 20260505160111 | 75 | 230 | 5.0 | 20.0 | 0.00 | 0.00 | 0.00 | 46 | 1009.3 |
| 20260505153100 | 74 | 206 | 6.0 | 12.0 | 0.00 | 0.00 | 0.00 | 49 | 1009.4 |
| 20260505151556 | 73 | 243 | 5.0 | 17.0 | 0.00 | 0.00 | 0.00 | 49 | 1009.4 |
| 20260505124557 | 61 | 187 | 2.0 | 7.0 | 0.00 | 0.00 | 0.00 | 73 | 1009.5 |
| 20260505123058 | 60 | 190 | 1.0 | 7.0 | 0.00 | 0.00 | 0.00 | 73 | 1009.6 |
| 20260505121556 | 58 | 0 | 0.0 | 6.0 | 0.00 | 0.00 | 0.00 | 77 | 1009.7 |
| 20260505120110 | 57 | 0 | 0.0 | 5.0 | 0.00 | 0.00 | 0.00 | 80 | 1009.5 |
| 20260505114555 | 56 | 141 | 2.0 | 6.0 | 0.00 | 0.00 | 0.00 | 79 | 1009.3 |
| 20260505113052 | 57 | 173 | 6.0 | 19.0 | 0.00 | 0.00 | 0.00 | 73 | 1009.8 |
| 20260505111549 | 57 | 147 | 4.0 | 9.0 | 0.00 | 0.00 | 0.00 | 69 | 1009.9 |
| 20260505110109 | 56 | 217 | 2.0 | 8.0 | 0.00 | 0.00 | 0.00 | 70 | 1009.9 |
| 20260505101551 | 55 | 149 | 2.0 | 8.0 | 0.00 | 0.00 | 0.00 | 69 | 1009.7 |
| 20260505100049 | 56 | 144 | 2.0 | 9.0 | 0.00 | 0.00 | 0.00 | 68 | 1009.4 |
| 20260505094554 | 56 | 121 | 3.0 | 8.0 | 0.00 | 0.00 | 0.00 | 67 | 1009.1 |
| 20260505093049 | 56 | 136 | 2.0 | 8.0 | 0.00 | 0.00 | 0.00 | 67 | 1009.0 |
| 20260505091556 | 55 | 127 | 3.0 | 7.0 | 0.00 | 0.00 | 0.00 | 67 | 1008.9 |
| 20260505090056 | 55 | 140 | 3.0 | 8.0 | 0.00 | 0.00 | 0.00 | 68 | 1009.1 |
| 20260505084600 | 55 | 159 | 1.0 | 8.0 | 0.00 | 0.00 | 0.00 | 68 | 1009.2 |
| 20260505083105 | 55 | 121 | 1.0 | 7.0 | 0.00 | 0.00 | 0.00 | 66 | 1009.3 |
| 20260505081556 | 55 | 143 | 1.0 | 7.0 | 0.00 | 0.00 | 0.00 | 66 | 1009.3 |
| 20260505080055 | 56 | 119 | 1.0 | 8.0 | 0.00 | 0.00 | 0.00 | 65 | 1009.2 |
| 20260505074549 | 56 | 173 | 2.0 | 8.0 | 0.00 | 0.00 | 0.00 | 64 | 1009.2 |
| 20260505073052 | 57 | 129 | 2.0 | 8.0 | 0.00 | 0.00 | 0.00 | 62 | 1009.2 |
| 20260505071554 | 57 | 155 | 3.0 | 8.0 | 0.00 | 0.00 | 0.00 | 61 | 1009.4 |
| 20260505070053 | 57 | 132 | 2.0 | 10.0 | 0.00 | 0.00 | 0.00 | 61 | 1009.3 |
| 20260505064620 | 57 | 155 | 2.0 | 10.0 | 0.00 | 0.00 | 0.00 | 60 | 1009.3 |
| 20260505063053 | 57 | 140 | 2.0 | 8.0 | 0.00 | 0.00 | 0.00 | 58 | 1009.3 |
| 20260505061551 | 58 | 139 | 2.0 | 9.0 | 0.00 | 0.00 | 0.00 | 57 | 1009.4 |
| 20260505060049 | 58 | 167 | 2.0 | 8.0 | 0.00 | 0.00 | 0.00 | 56 | 1009.5 |
| 20260505054551 | 59 | 161 | 3.0 | 12.0 | 0.00 | 0.00 | 0.00 | 55 | 1009.6 |
| 20260505053052 | 59 | 169 | 2.0 | 11.0 | 0.00 | 0.00 | 0.00 | 54 | 1009.4 |
| 20260505051549 | 59 | 204 | 4.0 | 11.0 | 0.00 | 0.00 | 0.00 | 54 | 1009.6 |